Regional Weather Roundup
Issued by NWS

Home | Current Version | Previous Version | Text Only | Print | Product List | Glossary On
Versions: 1 2 3 4 5 6 7 8 9 10 11 12 13 14 15 16 17 18 19 20 21 22 23 24 25 26 27 28 29 30 31 32 33 34 35 36 37 38 39 40 41 42 43 44 45 46 47 48 49 50
000
ASUS46 KPQR 150410
RWROR

OREGON REGIONAL WEATHER ROUNDUP
NATIONAL WEATHER SERVICE PORTLAND OR
800 PM PST THU DEC 14 2017

NOTE: "FAIR" INDICATES FEW OR NO CLOUDS BELOW 12,000 FEET WITH
NO SIGNIFICANT WEATHER AND/OR OBSTRUCTIONS TO VISIBILITY.

ORZ001>013-150500-
NORTHWEST OREGON


CITY           SKY/WX    TMP DP  RH WIND       PRES   REMARKS
ASTORIA        PTCLDY    40  32  73 E6        30.22F
NEWPORT        CLEAR     45  32  61 E10       30.25F
PORTLAND       PTCLDY    38  27  64 SE13      30.30F WCI  30
VANCOUVER WA   PTCLDY    38  30  73 E8        30.30F WCI  32
SCAPPOOSE      PTCLDY    36  27  69 S5        30.30R WCI  32
HILLSBORO      PTCLDY    31  27  85 CALM      30.30R
AURORA         PTCLDY    35  27  72 N5        30.30S WCI  31
MCMINNVILLE    PTCLDY    36  29  75 CALM      30.30R
SALEM          PTCLDY    33  27  78 CALM      30.28R
CORVALLIS      PTCLDY    29  26  89 CALM      30.29R
EUGENE         PTCLDY    30  29  96 SW6       30.28F WCI  24
$$

ORZ021-028-150500-
SOUTHWEST OREGON


CITY           SKY/WX    TMP DP  RH WIND       PRES   REMARKS
NORTH BEND     PTCLDY    42  39  89 CALM      30.23R
BROOKINGS      MOCLDY    48  44  86 CALM      30.16F
ROSEBURG       CLOUDY    35  35 100 CALM      30.28S FOG
SEXTON SUMMIT  PTCLDY    54  21  27 SE7       30.25S
GRANTS PASS    FOG       32  32 100 CALM      30.31S VSB 1/4
MEDFORD        CLEAR     36  33  89 CALM      30.26R
$$

ORZ014>016-041-150500-
COLUMBIA GORGE


CITY           SKY/WX    TMP DP  RH WIND       PRES   REMARKS
TROUTDALE      PTCLDY    38  26  62 E26G33    30.29F WCI  26
HOOD RIVER     CLOUDY    32  27  80 CALM      30.49S
THE DALLES     CLOUDY    35  26  69 SE3       30.50F
$$

ORZ029>031-041-044-049-050-061>064-502-503-505>511-150500-
EASTERN OREGON


CITY           SKY/WX    TMP DP  RH WIND       PRES   REMARKS
MADRAS         CLOUDY   N/A N/A N/A CALM      30.39F
REDMOND        CLOUDY    21  18  88 CALM      30.34S FOG
BEND           MOCLDY    19  16  86 CALM      30.33S
PRINEVILLE     MOCLDY    18  16  93 W5        30.33F WCI  11
KLAMATH FALLS  MOCLDY    29  24  82 NW5       30.29F WCI  24
LAKEVIEW       PTCLDY    24  21  88 NW6       30.32  WCI  17
HERMISTON      CLOUDY    32  29  88 CALM      30.47F
PENDLETON      CLOUDY    28  25  88 CALM      30.41F
JOHN DAY       MOCLDY    34  26  70 E10       30.31S WCI  26
MEACHAM        PTCLDY    25  21  85 CALM      30.30F
LA GRANDE      MOCLDY    25  21  85 NE9       30.40F WCI  15
BAKER CITY     CLOUDY    26  22  84 E5        30.42S WCI  20
BURNS          CLOUDY    15  13  91 S3        30.36F
ROME             N/A     15  13  91 NE8       30.37S WCI   4
ONTARIO        CLOUDY    29  24  82 SE3       30.53F
$$



USA.gov is the U.S. government's official web portal to all federal, state and local government web resources and services.